DW9210 Weather Reports


time (UTC)temp
F
wind
direction
speed
knots
gust
knots
rain 1hr
in
rain 24hr
in
rain mn
in
humidity
%
barometer
mb
20260507195503 63 309 3.5 7.0 0.00 0.00 0.00 43 1013.2
20260507195003 63 336 2.6 7.0 0.00 0.00 0.00 48 1013.2
20260507194503 62 3 2.6 7.0 0.00 0.00 0.00 41 1013.1
20260507194003 62 320 3.5 7.8 0.00 0.00 0.00 44 1013.3
20260507193524 63 291 4.3 7.8 0.00 0.00 0.00 43 1013.3
20260507193003 63 298 3.5 10.4 0.00 0.00 0.00 50 1013.2
20260507192503 63 318 3.5 10.4 0.00 0.00 0.00 48 1013.2
20260507192003 62 326 2.6 7.8 0.00 0.00 0.00 45 1013.3
20260507191503 62 284 2.6 7.0 0.00 0.00 0.00 42 1013.2
20260507191003 62 284 3.5 7.8 0.00 0.00 0.00 43 1013.4
20260507190503 63 281 4.3 7.8 0.00 0.00 0.00 47 1013.5
20260507190004 63 281 5.2 10.4 0.00 0.00 0.00 43 1013.5
20260507185503 62 302 4.3 10.4 0.00 0.00 0.00 49 1013.6
20260507185003 62 316 3.5 7.8 0.00 0.00 0.00 49 1013.6
20260507184503 62 301 2.6 6.1 0.00 0.00 0.00 46 1013.6
20260507184003 62 299 3.5 11.3 0.00 0.00 0.00 47 1013.6
20260507183503 62 289 4.3 11.3 0.00 0.00 0.00 47 1013.5
20260507183024 62 298 4.3 8.7 0.00 0.00 0.00 52 1013.6
20260507182524 62 294 4.3 11.3 0.00 0.00 0.00 49 1013.6
20260507182003 62 286 4.3 11.3 0.00 0.00 0.00 50 1013.7
20260507181503 61 297 3.5 7.0 0.00 0.00 0.00 56 1013.7
20260507181003 61 294 3.5 6.1 0.00 0.00 0.00 50 1013.7
20260507180503 61 268 2.6 6.1 0.00 0.00 0.00 55 1013.7
20260507180003 60 256 3.5 7.8 0.00 0.00 0.00 42 1013.7
20260507175503 60 290 4.3 7.8 0.00 0.00 0.00 46 1013.8
20260507175003 61 310 4.3 8.7 0.00 0.00 0.00 46 1013.9
20260507174503 61 283 4.3 9.6 0.00 0.00 0.00 47 1013.7
20260507174003 60 264 3.5 9.6 0.00 0.00 0.00 54 1013.7
20260507173524 60 262 3.5 9.6 0.00 0.00 0.00 48 1014.0
20260507173004 60 256 4.3 10.4 0.00 0.00 0.00 48 1014.2
20260507172503 61 254 4.3 10.4 0.00 0.00 0.00 51 1014.2
20260507172003 60 269 4.3 9.6 0.00 0.00 0.00 45 1014.3
20260507171503 61 280 4.3 7.8 0.00 0.00 0.00 56 1014.4
20260507171003 60 277 3.5 7.8 0.00 0.00 0.00 56 1014.5
20260507170524 60 272 3.5 8.7 0.00 0.00 0.00 53 1014.5
20260507170024 60 285 4.3 9.6 0.00 0.00 0.00 56 1014.7
20260507165503 60 306 4.3 9.6 0.00 0.00 0.00 55 1014.8
20260507165003 60 333 3.5 7.8 0.00 0.00 0.00 52 1014.7
20260507164503 60 304 4.3 9.6 0.00 0.00 0.00 53 1014.8
20260507164003 60 286 3.5 9.6 0.00 0.00 0.00 53 1014.7
20260507163524 60 288 3.5 8.7 0.00 0.00 0.00 60 1014.6
20260507163003 60 279 3.5 9.6 0.00 0.00 0.00 51 1014.7
20260507162503 60 272 3.5 9.6 0.00 0.00 0.00 54 1014.7
20260507162024 59 277 3.5 8.7 0.00 0.00 0.00 54 1014.8
20260507161503 59 296 4.3 8.7 0.00 0.00 0.00 56 1014.9
20260507161024 59 290 5.2 8.7 0.00 0.00 0.00 50 1014.8
20260507160503 59 289 4.3 8.7 0.00 0.00 0.00 51 1014.9
20260507160003 59 296 3.5 7.0 0.00 0.00 0.00 56 1014.8
20260507155524 59 289 3.5 7.0 0.00 0.00 0.00 59 1014.9
20260507155003 59 283 4.3 7.0 0.00 0.00 0.00 58 1014.9
20260507154503 58 290 3.5 7.0 0.00 0.00 0.00 59 1015.0
20260507154003 59 299 4.3 8.7 0.00 0.00 0.00 53 1014.9
20260507153504 59 292 4.3 8.7 0.00 0.00 0.00 58 1014.9
20260507153003 58 284 3.5 7.8 0.00 0.00 0.00 51 1014.8
20260507152503 58 284 3.5 6.1 0.00 0.00 0.00 54 1014.8
20260507152003 58 286 2.6 6.1 0.00 0.00 0.00 60 1014.7
20260507151524 57 301 2.6 7.0 0.00 0.00 0.00 54 1014.6
20260507151003 57 339 3.5 7.8 0.00 0.00 0.00 50 1014.7
20260507150503 57 354 3.5 7.8 0.00 0.00 0.00 52 1014.7
20260507150003 57 328 3.5 6.1 0.00 0.00 0.00 52 1014.7
20260507145503 57 314 3.5 7.8 0.00 0.00 0.00 54 1014.7
20260507145003 57 351 2.6 7.8 0.00 0.00 0.00 54 1014.7
20260507144503 56 330 3.5 7.0 0.00 0.00 0.00 55 1014.7
20260507144024 56 298 3.5 7.0 0.00 0.00 0.00 54 1014.7
20260507143503 56 358 2.6 7.0 0.00 0.00 0.00 59 1014.6
20260507143003 56 358 3.5 7.0 0.00 0.00 0.00 59 1014.6
20260507142503 56 335 2.6 6.1 0.00 0.00 0.00 61 1014.7
20260507142003 55 330 3.5 7.0 0.00 0.00 0.00 58 1014.8
20260507141503 55 346 3.5 7.0 0.00 0.00 0.00 55 1014.7
20260507141003 55 25 3.5 6.1 0.00 0.00 0.00 59 1014.7
20260507140503 55 353 3.5 7.0 0.00 0.00 0.00 56 1014.8
20260507140003 55 338 3.5 7.0 0.00 0.00 0.00 59 1014.8
20260507135503 55 346 3.5 7.0 0.00 0.00 0.00 63 1014.9
20260507135003 54 3 3.5 7.8 0.00 0.00 0.00 60 1014.9
20260507134503 54 28 4.3 7.8 0.00 0.00 0.00 62 1014.9
20260507134003 54 20 3.5 7.8 0.00 0.00 0.00 60 1014.9
20260507133503 54 14 2.6 5.2 0.00 0.00 0.00 61 1015.0
20260507133003 54 360 2.6 6.1 0.00 0.00 0.00 62 1014.9
20260507132503 53 352 3.5 6.1 0.00 0.00 0.00 65 1014.9
20260507132003 53 345 2.6 6.1 0.00 0.00 0.00 62 1014.8
20260507131503 53 353 2.6 6.1 0.00 0.00 0.00 67 1014.7
20260507131003 52 29 3.5 7.0 0.00 0.00 0.00 71 1014.7
20260507130503 52 28 4.3 8.7 0.00 0.00 0.00 66 1014.8
20260507130003 51 18 4.3 8.7 0.00 0.00 0.00 67 1014.8
20260507125524 51 10 3.5 7.8 0.00 0.00 0.00 68 1014.8
20260507125003 51 8 3.5 7.8 0.00 0.00 0.00 70 1014.9
20260507124503 50 360 3.5 7.0 0.00 0.00 0.00 70 1014.9
20260507124003 50 347 2.6 7.0 0.00 0.00 0.00 71 1015.0
20260507123503 50 351 2.6 7.0 0.00 0.00 0.00 73 1014.9
20260507123003 49 346 2.6 7.8 0.00 0.00 0.00 78 1014.9
20260507122503 48 333 3.5 7.8 0.00 0.00 0.00 77 1015.0
20260507122003 48 330 3.5 7.8 0.00 0.00 0.00 80 1015.0
20260507121503 48 330 3.5 7.8 0.00 0.00 0.00 80 1015.1
20260507121003 47 340 3.5 7.0 0.00 0.00 0.00 81 1015.1
20260507120503 47 341 2.6 6.1 0.00 0.01 0.00 83 1015.1
20260507120003 46 329 2.6 7.0 0.00 0.01 0.00 86 1015.0
20260507115503 46 326 2.6 7.0 0.00 0.01 0.00 87 1015.0
20260507115003 45 325 2.6 6.1 0.00 0.01 0.00 88 1015.0
20260507114503 44 323 2.6 5.2 0.00 0.01 0.00 90 1015.0
20260507114024 44 318 2.6 6.1 0.00 0.01 0.00 90 1014.9
20260507113503 43 318 1.7 6.1 0.00 0.01 0.00 94 1014.9
20260507113004 43 324 1.7 4.3 0.00 0.01 0.00 93 1014.9
20260507112503 42 329 1.7 3.5 0.00 0.01 0.00 94 1014.8
20260507112003 42 325 0.9 3.5 0.00 0.01 0.00 94 1014.7
20260507111504 42 319 0.9 2.6 0.00 0.01 0.00 94 1014.6
20260507111024 41 321 0.9 2.6 0.00 0.01 0.00 94 1014.5
20260507110524 41 321 1.7 3.5 0.00 0.01 0.00 94 1014.4
20260507110003 41 323 1.7 4.3 0.00 0.01 0.00 95 1014.3
20260507105524 41 324 1.7 4.3 0.00 0.01 0.00 95 1014.3
20260507105003 41 325 1.7 3.5 0.00 0.01 0.00 95 1014.3
20260507104503 41 322 0.9 2.6 0.00 0.01 0.00 95 1014.3
20260507104003 40 320 0.9 2.6 0.00 0.01 0.00 95 1014.2
20260507103503 40 323 0.9 1.7 0.00 0.01 0.00 95 1014.2
20260507103003 40 327 0.9 1.7 0.00 0.01 0.00 95 1014.1
20260507102503 40 338 0.0 0.9 0.00 0.01 0.00 94 1014.1
20260507102003 40 0 0.0 0.0 0.00 0.01 0.00 94 1014.0
20260507101524 41 0 0.0 0.0 0.00 0.01 0.00 94 1014.1
20260507101003 41 339 0.0 1.7 0.00 0.01 0.00 95 1014.2
20260507100503 41 339 0.9 2.6 0.00 0.01 0.00 94 1014.2
20260507100003 41 338 0.0 2.6 0.00 0.01 0.00 94 1014.1
20260507095524 41 0 0.0 0.0 0.00 0.01 0.00 94 1014.1
20260507095024 42 0 0.0 0.0 0.00 0.01 0.00 94 1014.1
20260507094503 42 0 0.0 0.0 0.00 0.01 0.00 95 1014.1
20260507094003 42 0 0.0 0.0 0.00 0.02 0.00 95 1014.1
20260507093503 42 0 0.0 0.0 0.00 0.02 0.00 94 1014.1
20260507093003 42 0 0.0 0.0 0.00 0.02 0.00 94 1014.1
20260507092524 42 0 0.0 0.0 0.00 0.02 0.00 94 1014.0
20260507092024 42 0 0.0 0.0 0.00 0.02 0.00 94 1013.9
20260507091503 42 0 0.0 0.0 0.00 0.03 0.00 94 1013.9
20260507091003 42 0 0.0 0.0 0.00 0.04 0.00 94 1013.9
20260507090503 42 0 0.0 0.0 0.00 0.04 0.00 93 1013.7
20260507090004 42 0 0.0 0.0 0.00 0.04 0.00 93 1013.8
20260507085503 42 327 0.0 2.6 0.00 0.04 0.00 93 1013.8
20260507085024 42 314 0.0 2.6 0.00 0.04 0.00 93 1013.8
20260507084503 43 301 0.9 1.7 0.00 0.04 0.00 94 1013.8
20260507084003 43 301 0.9 1.7 0.00 0.04 0.00 94 1013.8
20260507083524 43 301 0.0 1.7 0.00 0.04 0.00 93 1013.7
20260507083024 43 300 0.0 0.9 0.00 0.04 0.00 93 1013.7
20260507082503 43 304 0.0 0.9 0.00 0.04 0.00 93 1013.6
20260507082003 44 301 0.9 1.7 0.00 0.04 0.00 94 1013.7
20260507081503 44 300 0.9 1.7 0.00 0.05 0.00 94 1013.6
20260507081003 44 306 0.0 0.9 0.00 0.06 0.00 93 1013.5
20260507080503 44 0 0.0 0.0 0.00 0.08 0.00 93 1013.6
20260507080003 44 0 0.0 0.0 0.00 0.11 0.00 93 1013.6
20260507075503 44 0 0.0 0.0 0.00 0.12 0.00 93 1013.5
20260507075024 44 0 0.0 0.0 0.00 0.13 0.00 93 1013.6
20260507074503 45 0 0.0 0.0 0.00 0.15 0.00 93 1013.5
20260507074024 45 0 0.0 0.0 0.00 0.16 0.00 93 1013.6
20260507073524 45 0 0.0 0.0 0.00 0.16 0.00 93 1013.5
20260507073003 45 0 0.0 0.0 0.00 0.16 0.00 93 1013.6
20260507072503 45 0 0.0 0.0 0.00 0.17 0.00 93 1013.5
20260507072003 45 0 0.0 0.0 0.00 0.18 0.00 93 1013.5
20260507071504 45 334 0.0 0.9 0.00 0.20 0.00 93 1013.5
20260507071003 45 317 0.0 0.9 0.00 0.20 0.00 93 1013.4
20260507070524 45 319 0.0 0.9 0.00 0.22 0.00 92 1013.6
20260507070005 45 0 0.0 0.0 0.00 0.24 0.00 92 1013.4
20260507065503 46 299 0.0 1.7 0.00 0.25 0.00 92 1013.6
20260507065003 46 299 0.0 1.7 0.00 0.26 0.00 93 1013.5
20260507064503 46 300 0.0 0.9 0.00 0.27 0.00 92 1013.5
20260507064003 46 298 0.0 0.9 0.00 0.27 0.00 92 1013.4
20260507063503 46 296 0.0 0.9 0.00 0.27 0.00 92 1013.6
20260507063003 46 296 0.0 0.9 0.00 0.27 0.00 92 1013.7
20260507062503 46 297 0.0 0.9 0.00 0.28 0.00 92 1013.9
20260507062003 46 297 0.0 0.9 0.00 0.29 0.00 93 1014.0
20260507061503 46 298 0.0 0.9 0.00 0.29 0.00 92 1013.9
20260507061003 46 297 0.0 0.9 0.00 0.32 0.00 92 1013.9
20260507060503 46 314 0.0 1.7 0.00 0.33 0.00 92 1013.7
20260507060003 46 317 0.0 1.7 0.00 0.35 0.00 92 1013.9
20260507055503 46 325 0.0 1.7 0.00 0.37 0.00 92 1013.6
20260507055003 47 326 0.9 1.7 0.00 0.37 0.00 91 1013.5
20260507054503 47 326 0.0 1.7 0.00 0.39 0.00 91 1013.4
20260507054003 47 325 0.0 0.9 0.00 0.39 0.00 91 1013.4
20260507053503 47 325 0.0 0.9 0.00 0.39 0.00 91 1013.6
20260507053003 47 326 0.0 0.9 0.00 0.39 0.00 92 1013.6
20260507052503 47 324 0.0 0.9 0.00 0.39 0.00 92 1013.6
20260507052003 47 324 0.0 0.9 0.00 0.39 0.00 91 1013.7
20260507051503 47 321 0.0 1.7 0.00 0.39 0.00 91 1013.8
20260507051024 47 319 0.0 1.7 0.00 0.39 0.00 91 1013.8
20260507050503 47 316 0.0 0.9 0.00 0.39 0.00 91 1013.7
20260507050003 47 315 0.0 0.9 0.00 0.39 0.00 91 1013.7
20260507045503 47 316 0.0 0.9 0.00 0.39 0.00 91 1013.6
20260507045003 48 314 0.0 0.9 0.00 0.39 0.00 91 1013.8
20260507044503 48 315 0.0 0.9 0.00 0.39 0.00 90 1013.9
20260507044003 48 314 0.0 0.9 0.00 0.39 0.00 90 1013.8
20260507043503 48 313 0.9 1.7 0.00 0.39 0.00 90 1014.0
20260507043003 48 314 0.9 1.7 0.00 0.39 0.00 90 1014.0
20260507042503 48 314 0.0 0.9 0.00 0.40 0.00 90 1013.9
20260507042003 48 313 0.0 0.9 0.00 0.40 0.00 90 1014.0
20260507041503 48 313 0.0 0.9 0.00 0.40 0.00 90 1014.1
20260507041003 48 0 0.0 0.0 0.00 0.40 0.00 89 1014.1
20260507040503 48 319 0.0 0.9 0.00 0.40 0.00 89 1014.1
20260507040003 49 315 0.0 0.9 0.00 0.40 0.00 88 1014.1
20260507035503 49 314 0.0 0.9 0.00 0.43 0.40 88 1014.1
20260507035003 49 316 0.0 0.9 0.00 0.43 0.40 88 1014.1
20260507034503 49 0 0.0 0.0 0.00 0.43 0.40 87 1014.1
20260507034003 49 0 0.0 0.0 0.00 0.43 0.40 85 1014.1
20260507033503 50 0 0.0 0.0 0.00 0.43 0.40 86 1014.0
20260507033003 50 0 0.0 0.0 0.00 0.43 0.40 84 1014.0
20260507032503 50 312 0.0 1.7 0.00 0.43 0.40 84 1014.0
20260507032003 50 309 0.0 1.7 0.00 0.44 0.40 83 1013.9
20260507031503 51 307 0.0 1.7 0.00 0.44 0.40 83 1013.9
20260507031003 51 317 0.0 0.9 0.00 0.44 0.40 82 1013.8
20260507030503 51 316 0.0 0.9 0.00 0.44 0.40 81 1013.7
20260507030003 51 315 0.0 0.9 0.00 0.44 0.40 80 1013.7
20260507025524 52 315 0.0 0.9 0.00 0.44 0.40 81 1013.7
20260507025003 52 317 0.0 1.7 0.00 0.44 0.40 82 1013.6
20260507024524 52 325 0.9 1.7 0.00 0.44 0.40 78 1013.5
20260507024024 52 341 0.9 1.7 0.00 0.44 0.40 79 1013.6
20260507023503 52 351 0.9 1.7 0.00 0.44 0.40 78 1013.5
20260507023003 53 342 0.9 2.6 0.00 0.44 0.40 78 1013.4
20260507022503 53 340 0.9 2.6 0.00 0.44 0.40 78 1013.4
20260507022003 53 340 0.9 1.7 0.00 0.44 0.40 78 1013.3
20260507021503 53 333 0.9 2.6 0.00 0.44 0.40 78 1013.2
20260507021024 54 330 0.9 2.6 0.00 0.44 0.40 77 1013.2
20260507020524 54 331 0.9 2.6 0.00 0.44 0.40 77 1013.2
20260507020003 54 327 0.9 2.6 0.00 0.44 0.40 76 1013.1
20260507015524 54 334 1.7 2.6 0.00 0.44 0.40 75 1013.0
20260507015003 54 338 1.7 3.5 0.00 0.44 0.40 74 1012.9
20260507014524 55 336 1.7 3.5 0.00 0.44 0.40 74 1012.9
20260507014003 55 336 1.7 3.5 0.00 0.44 0.40 75 1013.0
20260507013503 55 331 1.7 3.5 0.00 0.44 0.40 74 1013.0
20260507013003 55 328 1.7 4.3 0.00 0.44 0.40 73 1013.1
20260507012524 55 329 1.7 4.3 0.00 0.44 0.40 72 1013.2
20260507012003 55 328 1.7 4.3 0.00 0.44 0.40 73 1013.1
20260507011503 55 323 1.7 2.6 0.00 0.44 0.40 73 1012.9
20260507011024 56 314 1.7 4.3 0.00 0.44 0.40 74 1013.0
20260507010503 56 307 1.7 4.3 0.00 0.44 0.40 73 1013.1
20260507010024 56 311 1.7 4.3 0.00 0.44 0.40 74 1013.0
20260507005503 56 315 1.7 4.3 0.00 0.45 0.40 72 1012.8
20260507005003 56 310 1.7 3.5 0.00 0.45 0.40 73 1012.7
20260507004524 56 304 1.7 3.5 0.00 0.46 0.40 73 1012.5
20260507004003 56 301 1.7 2.6 0.00 0.46 0.40 73 1012.6
20260507003503 56 297 0.9 2.6 0.00 0.47 0.40 74 1012.6
20260507003003 56 294 0.9 1.7 0.00 0.48 0.40 74 1012.5
20260507002503 56 290 0.9 2.6 0.00 0.48 0.40 73 1012.6
20260507002024 56 288 0.9 2.6 0.00 0.48 0.40 75 1012.5
20260507001503 56 287 0.9 1.7 0.00 0.48 0.40 73 1012.4
20260507001003 57 288 0.9 1.7 0.00 0.48 0.40 72 1012.3
20260507000503 57 290 0.9 1.7 0.00 0.48 0.40 73 1012.3
20260507000003 57 291 1.7 2.6 0.00 0.48 0.40 73 1012.3
20260506235503 57 289 1.7 2.6 0.00 0.48 0.40 73 1012.2
20260506235003 57 290 1.7 2.6 0.00 0.48 0.40 72 1012.4
20260506234503 57 290 1.7 2.6 0.00 0.48 0.40 71 1012.2
20260506234024 57 287 1.7 2.6 0.00 0.48 0.40 71 1012.1
20260506233503 57 283 1.7 2.6 0.00 0.48 0.40 72 1012.0
20260506233003 58 286 1.7 2.6 0.00 0.49 0.40 70 1012.2
20260506232503 58 289 1.7 2.6 0.00 0.49 0.40 69 1011.9
20260506232003 58 288 1.7 3.5 0.00 0.49 0.40 70 1011.9
20260506231524 58 284 1.7 3.5 0.00 0.49 0.40 68 1012.2
20260506231003 58 286 1.7 2.6 0.00 0.49 0.40 69 1011.9
20260506230503 58 299 1.7 3.5 0.00 0.49 0.40 70 1011.6
20260506230003 58 312 1.7 4.3 0.00 0.49 0.40 69 1011.4
20260506225503 58 316 2.6 5.2 0.00 0.49 0.40 66 1011.2
20260506225024 58 313 2.6 5.2 0.00 0.49 0.40 68 1011.2
20260506224524 59 310 2.6 4.3 0.00 0.49 0.40 68 1011.3
20260506224003 59 318 2.6 6.1 0.00 0.49 0.40 67 1011.7
20260506223503 59 316 2.6 6.1 0.00 0.49 0.40 65 1011.2
20260506223003 60 315 2.6 4.3 0.00 0.49 0.40 67 1011.5
20260506222503 60 322 1.7 4.3 0.00 0.49 0.40 69 1011.5
20260506222003 60 325 1.7 4.3 0.00 0.49 0.40 66 1011.3
20260506221504 60 324 2.6 6.1 0.00 0.49 0.40 68 1011.0
20260506221003 60 332 2.6 6.1 0.00 0.49 0.40 66 1011.0
20260506220503 60 332 2.6 5.2 0.00 0.49 0.40 68 1011.1
20260506220003 60 325 1.7 4.3 0.00 0.49 0.40 67 1011.4
20260506215503 60 325 1.7 3.5 0.00 0.49 0.40 72 1011.3
20260506215003 60 308 1.7 3.5 0.00 0.49 0.40 69 1011.4
20260506214503 60 296 2.6 3.5 0.00 0.49 0.40 70 1011.4
20260506214024 60 298 2.6 4.3 0.00 0.49 0.40 70 1011.9
20260506213503 61 297 2.6 4.3 0.00 0.49 0.40 69 1011.8
20260506213003 61 299 2.6 4.3 0.00 0.49 0.40 69 1011.6
20260506212503 61 302 2.6 6.1 0.00 0.49 0.40 70 1011.4
20260506212003 61 294 2.6 6.1 0.00 0.49 0.40 68 1011.3
20260506211503 61 292 2.6 3.5 0.00 0.49 0.40 71 1011.4
20260506211003 61 292 2.6 3.5 0.00 0.49 0.40 70 1011.4
20260506210503 62 298 1.7 3.5 0.00 0.49 0.40 70 1011.3
20260506210003 62 295 1.7 3.5 0.00 0.49 0.40 70 1011.3
20260506205503 62 286 1.7 3.5 0.00 0.49 0.40 71 1011.3
20260506205003 62 286 1.7 3.5 0.00 0.49 0.40 67 1011.4
20260506204503 62 292 1.7 3.5 0.00 0.49 0.40 70 1011.3
20260506204003 62 282 1.7 3.5 0.00 0.49 0.40 70 1011.1
20260506203503 62 299 1.7 3.5 0.00 0.49 0.40 68 1011.0
20260506203003 61 13 1.7 3.5 0.00 0.49 0.40 68 1010.9
20260506202503 61 359 1.7 3.5 0.00 0.49 0.40 69 1011.2
20260506202003 62 289 1.7 3.5 0.00 0.49 0.40 67 1011.3
20260506201503 62 290 1.7 3.5 0.00 0.49 0.40 67 1011.4
20260506201003 62 308 0.9 3.5 0.00 0.49 0.40 67 1011.5
20260506200503 62 292 0.9 2.6 0.00 0.49 0.40 66 1011.6
20260506200003 62 296 0.9 3.5 0.00 0.49 0.40 68 1011.6